Weather History for KCID - April, 2013

Change the Weather History Date:

Tuesday, April 30, 2013

  Actual Average Record
Temperature  
Mean Temperature 75 °F 55 °F  
Max Temperature 88 °F 66 °F 90 °F (1952)
Min Temperature 61 °F 43 °F 27 °F (2005)
Degree Days  
Heating Degree Days 0 11  
Month to date heating degree days 562 482  
Since 1 July heating degree days 6784 6645  
Cooling Degree Days 10 0  
Month to date cooling degree days 11 7  
Year to date cooling degree days 11 7  
Growing Degree Days 26 (Base 50)    
Moisture  
Dew Point 51 °F    
Average Humidity 51    
Maximum Humidity 78    
Minimum Humidity 24    
Precipitation  
Precipitation T in 0.12 in 1.16 in (1997)
Month to date precipitation 8.55 3.05  
Year to date precipitation 12.84 7.29  
Sea Level Pressure  
Sea Level Pressure 29.69 in    
Wind  
Wind Speed 16 mph (SSW)    
Max Wind Speed 30 mph    
Max Gust Speed 37 mph    
Visibility 10 miles    
Events Rain    
T = Trace of Precipitation, MM = Missing Value Source: NWS Daily Summary

Daily Weather History Graph

Daily Weather History Graph

Search for Another Location

Airport or City:

Trip Planner

Search our weather history database for the weather conditions in past years. The results will help you decide how hot, cold, wet, or windy it might be!

Date:

Astronomy

Apr. 30, 2013 Rise Set
Actual Time 6:04 AM CDT 8:04 PM CDT
Civil Twilight 5:33 AM CDT 8:35 PM CDT
Nautical Twilight 4:56 AM CDT 9:12 PM CDT
Astronomical Twilight 4:16 AM CDT 9:52 PM CDT
Moon 12:29 AM CDT (4/30) 10:32 AM CDT (4/30)
Length of Visible Light 15h 01m
Length of Day
14h 00m
Waning Gibbous, 70% of the Moon is Illuminated
Apr 30
Waning Gibbous
May 2
Last Quarter
May 9
New
May 17
First Quarter
May 24
Full

Hourly Weather History & Observations

Time (CDT) Temp. Dew Point Humidity Pressure Visibility Wind Dir Wind Speed Gust Speed Precip Events Conditions
12:52 AM 66.0 °F 57.0 °F 73% 29.62 in 10.0 mi SSE 12.7 mph - N/A   Clear
1:52 AM 64.9 °F 57.0 °F 75% 29.61 in 10.0 mi South 11.5 mph - N/A   Clear
2:52 AM 64.0 °F 57.9 °F 80% 29.62 in 10.0 mi SSE 9.2 mph - 0.00 in   Mostly Cloudy
3:52 AM 64.9 °F 57.0 °F 75% 29.62 in 10.0 mi South 10.4 mph - N/A   Clear
4:52 AM 64.9 °F 57.0 °F 75% 29.64 in 10.0 mi SSE 6.9 mph - 0.00 in Rain Light Rain
5:52 AM 66.0 °F 55.9 °F 70% 29.64 in 10.0 mi South 15.0 mph 20.7 mph 0.00 in Rain Light Rain
6:52 AM 68.0 °F 54.0 °F 61% 29.65 in 10.0 mi South 17.3 mph - 0.00 in   Clear
7:52 AM 69.1 °F 54.0 °F 58% 29.66 in 10.0 mi South 18.4 mph - N/A   Clear
8:52 AM 72.0 °F 53.1 °F 51% 29.67 in 10.0 mi SSW 18.4 mph 28.8 mph N/A   Clear
9:52 AM 78.1 °F 48.9 °F 36% 29.67 in 10.0 mi SW 26.5 mph 32.2 mph N/A   Clear
10:52 AM 82.0 °F 46.0 °F 28% 29.67 in 10.0 mi SW 24.2 mph 36.8 mph N/A   Clear
11:52 AM 84.0 °F 45.0 °F 25% 29.68 in 10.0 mi SW 24.2 mph 33.4 mph N/A   Clear
12:52 PM 86.0 °F 46.9 °F 26% 29.67 in 10.0 mi SW 21.9 mph 34.5 mph N/A   Clear
1:52 PM 87.8 °F 46.4 °F 24% 29.69 in 10.0 mi SSW 21.9 mph 29.9 mph N/A   Clear
2:52 PM 88.0 °F 46.0 °F 23% 29.68 in 10.0 mi South 20.7 mph 29.9 mph N/A   Clear
3:52 PM 87.1 °F 46.9 °F 25% 29.68 in 10.0 mi SW 21.9 mph 31.1 mph N/A   Clear
4:52 PM 86.0 °F 46.9 °F 26% 29.69 in 10.0 mi SSW 17.3 mph - N/A   Clear
5:52 PM 84.0 °F 46.9 °F 27% 29.71 in 10.0 mi South 18.4 mph 24.2 mph N/A   Clear
6:52 PM 81.0 °F 50.0 °F 34% 29.73 in 10.0 mi South 18.4 mph - N/A   Clear
7:52 PM 77.0 °F 48.9 °F 37% 29.75 in 10.0 mi South 13.8 mph - N/A   Clear
8:52 PM 73.0 °F 48.9 °F 42% 29.78 in 10.0 mi South 11.5 mph - N/A   Clear
9:52 PM 70.0 °F 50.0 °F 49% 29.79 in 10.0 mi SSE 6.9 mph - N/A   Clear
10:52 PM 64.9 °F 51.1 °F 61% 29.82 in 10.0 mi SW 4.6 mph - N/A   Clear
11:52 PM 63.0 °F 51.1 °F 65% 29.85 in 10.0 mi NW 9.2 mph - N/A   Clear